Weather History for North Padre Island, TX

Change the Weather History Date:

Thursday, February 28, 2013

  Actual Average Record
Temperature  
Mean Temperature 58 °F -  
Max Temperature 62 °F - - ()
Min Temperature 55 °F - - ()
Degree Days  
Heating Degree Days 6    
Growing Degree Days 8 (Base 50)    
Moisture  
Dew Point 37 °F    
Average Humidity 46    
Maximum Humidity 63    
Minimum Humidity 34    
Precipitation  
Precipitation 0.00 in - - ()
Sea Level Pressure  
Sea Level Pressure 30.22 in    
Wind  
Wind Speed 11 mph (North)    
Max Wind Speed 17 mph    
Max Gust Speed 24 mph    
Visibility 10 miles    
Events      
T = Trace of Precipitation, MM = Missing Value Source: NWS Daily Summary

Daily Weather History Graph

Daily Weather History Graph

Search for Another Location

Airport:

Trip Planner

Search our weather history database for the weather conditions in past years. The results will help you decide how hot, cold, wet, or windy it might be!

Date:

Astronomy

Feb. 28, 2013 Rise Set
Actual Time 6:52 AM CST 6:28 PM CST
Civil Twilight 6:29 AM CST 6:51 PM CST
Nautical Twilight 6:02 AM CST 7:18 PM CST
Astronomical Twilight 5:35 AM CST 7:45 PM CST
Moon 9:31 PM CST 8:24 AM CST
Length of Visible Light 12h 22m
Length of Day
11h 36m
Waning Gibbous, 90% of the Moon is Illuminated
Feb 28
Waning Gibbous
Mar 4
Last Quarter
Mar 11
New
Mar 19
First Quarter
Mar 27
Full

Hourly Weather History & Observations

Time (CST) Temp. Dew Point Humidity Pressure Visibility Wind Dir Wind Speed Gust Speed Precip Events Conditions
12:35 AM 62.6 °F 39.2 °F 42% 30.15 in 10.0 mi North 11.5 mph - N/A   Clear
12:55 AM 62.6 °F 39.2 °F 42% 30.16 in 10.0 mi North 12.7 mph 18.4 mph N/A   Clear
1:15 AM 62.6 °F 37.4 °F 39% 30.16 in 10.0 mi North 12.7 mph - N/A   Clear
1:35 AM 62.6 °F 37.4 °F 39% 30.16 in 10.0 mi North 11.5 mph - N/A   Clear
1:55 AM 62.6 °F 39.2 °F 42% 30.16 in 10.0 mi North 11.5 mph - N/A   Clear
2:15 AM 62.6 °F 39.2 °F 42% 30.16 in 10.0 mi North 12.7 mph 19.6 mph N/A   Clear
2:35 AM 62.6 °F 39.2 °F 42% 30.16 in 10.0 mi North 13.8 mph 20.7 mph N/A   Clear
2:55 AM 60.8 °F 41.0 °F 48% 30.17 in 10.0 mi North 12.7 mph 18.4 mph N/A   Clear
3:15 AM 60.8 °F 37.4 °F 42% 30.17 in 10.0 mi North 12.7 mph - N/A   Clear
3:35 AM 60.8 °F 39.2 °F 45% 30.17 in 10.0 mi North 11.5 mph - N/A   Clear
3:55 AM 60.8 °F 37.4 °F 42% 30.17 in 10.0 mi North 10.4 mph 17.3 mph N/A   Clear
4:15 AM 60.8 °F 37.4 °F 42% 30.17 in 10.0 mi North 15.0 mph 21.9 mph N/A   Clear
4:35 AM 60.8 °F 37.4 °F 42% 30.16 in 10.0 mi North 13.8 mph 20.7 mph N/A   Clear
4:55 AM 60.8 °F 37.4 °F 42% 30.18 in 10.0 mi North 12.7 mph 19.6 mph N/A   Clear
5:15 AM 59.0 °F 37.4 °F 45% 30.18 in 10.0 mi North 12.7 mph 19.6 mph N/A   Clear
5:55 AM 59.0 °F 37.4 °F 45% 30.20 in 10.0 mi North 16.1 mph - N/A   Clear
6:15 AM 59.0 °F 37.4 °F 45% 30.20 in 10.0 mi North 15.0 mph 23.0 mph N/A   Clear
6:35 AM 59.0 °F 37.4 °F 45% 30.20 in 10.0 mi North 17.3 mph 24.2 mph N/A   Clear
6:55 AM 57.2 °F 39.2 °F 51% 30.21 in 10.0 mi North 17.3 mph 24.2 mph N/A   Clear
7:15 AM 57.2 °F 37.4 °F 48% 30.22 in 10.0 mi North 12.7 mph 21.9 mph N/A   Clear
7:35 AM 57.2 °F 37.4 °F 48% 30.23 in 10.0 mi North 15.0 mph 21.9 mph N/A   Clear
7:55 AM 57.2 °F 37.4 °F 48% 30.24 in 10.0 mi North 15.0 mph 20.7 mph N/A   Clear
8:15 AM 57.2 °F 39.2 °F 51% 30.25 in 10.0 mi North 13.8 mph 20.7 mph N/A   Clear
8:35 AM 57.2 °F 39.2 °F 51% 30.26 in 10.0 mi North 12.7 mph 21.9 mph N/A   Clear
8:55 AM 57.2 °F 35.6 °F 44% 30.27 in 10.0 mi North 11.5 mph 20.7 mph N/A   Clear
9:15 AM 57.2 °F 39.2 °F 51% 30.27 in 10.0 mi North 13.8 mph - N/A   Clear
9:35 AM 57.2 °F 39.2 °F 51% 30.27 in 10.0 mi North 12.7 mph 18.4 mph N/A   Clear
9:55 AM 57.2 °F 39.2 °F 51% 30.26 in 10.0 mi North 11.5 mph 19.6 mph N/A   Clear
10:15 AM 57.2 °F 39.2 °F 51% 30.26 in 10.0 mi North 11.5 mph 18.4 mph N/A   Clear
10:35 AM 57.2 °F 41.0 °F 55% 30.26 in 10.0 mi North 10.4 mph 21.9 mph N/A   Clear
10:55 AM 57.2 °F 41.0 °F 55% 30.26 in 10.0 mi North 12.7 mph - N/A   Clear
11:15 AM 57.2 °F 41.0 °F 55% 30.26 in 10.0 mi North 10.4 mph 16.1 mph N/A   Clear
11:35 AM 57.2 °F 42.8 °F 59% 30.26 in 10.0 mi NNW 10.4 mph - N/A   Clear
11:55 AM 57.2 °F 42.8 °F 59% 30.26 in 10.0 mi NNW 10.4 mph 17.3 mph N/A   Clear
12:35 PM 55.4 °F 41.0 °F 58% 30.25 in 10.0 mi North 10.4 mph - N/A   Clear
12:55 PM 55.4 °F 42.8 °F 63% 30.24 in 10.0 mi NNW 9.2 mph 19.6 mph N/A   Clear
1:15 PM 55.4 °F 41.0 °F 58% 30.23 in 10.0 mi NNW 10.4 mph - N/A   Clear
1:35 PM 55.4 °F 41.0 °F 58% 30.23 in 10.0 mi NNW 10.4 mph - N/A   Clear
1:55 PM 55.4 °F 39.2 °F 54% 30.22 in 10.0 mi NNW 10.4 mph 17.3 mph N/A   Clear
2:15 PM 55.4 °F 39.2 °F 54% 30.20 in 10.0 mi North 8.1 mph 16.1 mph N/A   Clear
2:35 PM 55.4 °F 39.2 °F 54% 30.20 in 10.0 mi NNW 10.4 mph - N/A   Clear
2:55 PM 55.4 °F 37.4 °F 51% 30.19 in 10.0 mi North 8.1 mph - N/A   Clear
3:15 PM 57.2 °F 33.8 °F 41% 30.19 in 10.0 mi North 11.5 mph - N/A   Clear
3:35 PM 57.2 °F 35.6 °F 44% 30.18 in 10.0 mi NNW 6.9 mph 15.0 mph N/A   Clear
3:55 PM 57.2 °F 35.6 °F 44% 30.19 in 10.0 mi NNW 8.1 mph 15.0 mph N/A   Partly Cloudy
4:15 PM 57.2 °F 35.6 °F 44% 30.18 in 10.0 mi NNW 8.1 mph 15.0 mph N/A   Partly Cloudy
4:35 PM 57.2 °F 35.6 °F 44% 30.18 in 10.0 mi NNW 6.9 mph 17.3 mph N/A   Partly Cloudy
4:55 PM 57.2 °F 35.6 °F 44% 30.19 in 10.0 mi NNW 10.4 mph - N/A   Clear
5:15 PM 57.2 °F 35.6 °F 44% 30.19 in 10.0 mi North 10.4 mph 16.1 mph N/A   Clear
5:35 PM 57.2 °F 37.4 °F 48% 30.19 in 10.0 mi NNW 6.9 mph 13.8 mph N/A   Clear
6:15 PM 57.2 °F 37.4 °F 48% 30.20 in 10.0 mi North 9.2 mph 15.0 mph N/A   Clear
6:35 PM 57.2 °F 37.4 °F 48% 30.21 in 10.0 mi North 8.1 mph 13.8 mph N/A   Clear
7:15 PM 57.2 °F 35.6 °F 44% 30.21 in 10.0 mi North 8.1 mph - N/A   Clear
7:35 PM 59.0 °F 35.6 °F 42% 30.22 in 10.0 mi NNW 8.1 mph - N/A   Clear
7:55 PM 59.0 °F 35.6 °F 42% 30.22 in 10.0 mi North 8.1 mph 13.8 mph N/A   Clear
8:15 PM 59.0 °F 33.8 °F 39% 30.23 in 10.0 mi North 8.1 mph - N/A   Clear
8:35 PM 59.0 °F 33.8 °F 39% 30.23 in 10.0 mi NNW 9.2 mph - N/A   Clear
8:55 PM 59.0 °F 33.8 °F 39% 30.23 in 10.0 mi North 8.1 mph - N/A   Clear
9:15 PM 59.0 °F 33.8 °F 39% 30.24 in 10.0 mi NNW 8.1 mph - N/A   Clear
9:35 PM 59.0 °F 33.8 °F 39% 30.25 in 10.0 mi NNW 6.9 mph - N/A   Clear
9:55 PM 59.0 °F 35.6 °F 42% 30.25 in 10.0 mi NNW 8.1 mph - N/A   Clear
10:15 PM 59.0 °F 33.8 °F 39% 30.25 in 10.0 mi NNW 8.1 mph - N/A   Clear
10:35 PM 59.0 °F 33.8 °F 39% 30.26 in 10.0 mi North 4.6 mph 12.7 mph N/A   Clear
10:55 PM 60.8 °F 32.0 °F 34% 30.27 in 10.0 mi NNW 6.9 mph 15.0 mph N/A   Clear
11:15 PM 60.8 °F 33.8 °F 36% 30.27 in 10.0 mi North 6.9 mph - N/A   Clear
11:35 PM 60.8 °F 33.8 °F 36% 30.26 in 10.0 mi North 5.8 mph 12.7 mph N/A   Clear
11:55 PM 60.8 °F 33.8 °F 36% 30.27 in 10.0 mi North 6.9 mph - N/A   Clear